Weather History for KBPK - November, 2013

Change the Weather History Date:

Monday, November 4, 2013

  Actual Average (KHRO) Record (KHRO)
Temperature  
Mean Temperature 50 °F 53 °F  
Max Temperature 55 °F 64 °F 82 °F (1916)
Min Temperature 46 °F 43 °F 16 °F (1991)
Degree Days  
Heating Degree Days 14 12  
Month to date heating degree days 47  
Since 1 July heating degree days 312  
Cooling Degree Days 0 0  
Month to date cooling degree days 0  
Year to date cooling degree days 1412  
Moisture  
Dew Point 44 °F    
Average Humidity 76    
Maximum Humidity 96    
Minimum Humidity 59    
Precipitation  
Precipitation 0.20 in 0.15 in 3.18 in (1994)
Month to date precipitation 0.57  
Year to date precipitation 37.28  
Snow  
Snow 0.00 in 0.00 in - ()
Month to date snowfall 0.0  
Since 1 July snowfall 0.1  
Since 1 September snowfall 0.1  
Snow Depth -    
Sea Level Pressure  
Sea Level Pressure 30.16 in    
Wind  
Wind Speed 7 mph (SSE)    
Max Wind Speed 14 mph    
Max Gust Speed 22 mph    
Visibility 8 miles    
Events Rain    
T = Trace of Precipitation, MM = Missing Value Source: NWS Daily Summary

Daily Weather History Graph

Daily Weather History Graph

Search for Another Location

Airport or City:

Trip Planner

Search our weather history database for the weather conditions in past years. The results will help you decide how hot, cold, wet, or windy it might be!

Date:

Astronomy

Nov. 04, 2013 Rise Set
Actual Time 6:36 AM CST 5:10 PM CST
Civil Twilight 6:09 AM CST 5:37 PM CST
Nautical Twilight 5:38 AM CST 6:07 PM CST
Astronomical Twilight 5:08 AM CST 6:37 PM CST
Moon 7:45 AM CST (11/4) 6:17 PM CST (11/4)
Length of Visible Light 11h 27m
Length of Day
10h 33m
New Moon, 2% of the Moon is Illuminated
Nov 4
New Moon
Nov 9
First Quarter
Nov 17
Full
Nov 25
Last Quarter
Dec 2
New

Hourly Weather History & Observations

Time (CST) Temp. Windchill Dew Point Humidity Pressure Visibility Wind Dir Wind Speed Gust Speed Precip Events Conditions
12:53 AM 46.9 °F - 37.9 °F 71% 30.10 in 10.0 mi SSE 6.9 mph - N/A   Clear
1:53 AM 46.0 °F 43.1 °F 37.9 °F 73% 30.11 in 10.0 mi SSE 5.8 mph - N/A   Clear
2:53 AM 46.9 °F - 37.9 °F 71% 30.11 in 10.0 mi SSE 6.9 mph - N/A   Clear
3:53 AM 48.0 °F - 37.9 °F 68% 30.09 in 10.0 mi SE 5.8 mph - N/A   Clear
4:53 AM 48.9 °F - 37.9 °F 66% 30.11 in 10.0 mi South 6.9 mph - N/A   Clear
5:53 AM 48.9 °F - 37.9 °F 66% 30.11 in 10.0 mi SSE 5.8 mph - N/A   Clear
6:53 AM 48.9 °F - 37.9 °F 66% 30.12 in 10.0 mi South 5.8 mph - N/A   Clear
7:53 AM 51.1 °F - 39.0 °F 63% 30.12 in 10.0 mi SSE 5.8 mph - N/A   Clear
8:53 AM 52.0 °F - 39.9 °F 63% 30.14 in 10.0 mi South 5.8 mph - N/A   Partly Cloudy
9:53 AM 54.0 °F - 39.9 °F 59% 30.17 in 10.0 mi South 11.5 mph 16.1 mph N/A   Clear
10:53 AM 54.0 °F - 41.0 °F 62% 30.16 in 10.0 mi South 11.5 mph - 0.00 in Rain Light Rain
11:53 AM 54.0 °F - 42.1 °F 64% 30.17 in 10.0 mi South 11.5 mph 16.1 mph 0.00 in Rain Light Rain
12:53 PM 55.0 °F - 42.1 °F 62% 30.14 in 10.0 mi South 10.4 mph 21.9 mph 0.00 in   Overcast
1:53 PM 55.0 °F - 42.1 °F 62% 30.14 in 10.0 mi South 13.8 mph 20.7 mph N/A   Overcast
2:53 PM 55.0 °F - 44.1 °F 67% 30.13 in 10.0 mi South 6.9 mph 16.1 mph N/A   Overcast
3:53 PM 53.1 °F - 46.0 °F 77% 30.15 in 9.0 mi SSE 8.1 mph - 0.00 in Rain Light Rain
4:53 PM 51.1 °F - 48.0 °F 89% 30.16 in 6.0 mi South 5.8 mph - 0.01 in Rain Light Rain
5:53 PM 51.1 °F - 48.0 °F 89% 30.18 in 7.0 mi SE 4.6 mph - 0.03 in Rain Light Rain
6:49 PM 51.8 °F - 48.2 °F 88% 30.19 in 3.0 mi SSE 4.6 mph - 0.06 in Rain Rain
6:53 PM 51.1 °F - 48.9 °F 92% 30.19 in 3.0 mi SSE 3.5 mph - 0.06 in Rain Rain
7:01 PM 51.8 °F - 48.2 °F 88% 30.20 in 4.0 mi SSE 3.5 mph - 0.01 in Rain Light Rain
7:18 PM 51.8 °F - 48.2 °F 88% 30.20 in 4.0 mi SSE 4.6 mph - 0.02 in Rain Light Rain
7:53 PM 51.1 °F - 48.9 °F 92% 30.20 in 4.0 mi SE 3.5 mph - 0.03 in Rain Light Rain
8:53 PM 51.1 °F - 48.9 °F 92% 30.21 in 4.0 mi SSE 5.8 mph - 0.04 in Rain Light Rain
9:53 PM 51.1 °F - 50.0 °F 96% 30.22 in 5.0 mi SE 3.5 mph - 0.01 in   Overcast
10:53 PM 51.1 °F - 48.9 °F 92% 30.22 in 5.0 mi SE 3.5 mph - 0.02 in   Overcast
11:53 PM 51.1 °F - 50.0 °F 96% 30.20 in 5.0 mi ESE 3.5 mph - 0.00 in Rain Light Rain